SCP
0 0 0 0 0 0 0 0 0 0 0 0 0 0 0 0 0 0 0 0 0 0 0 0 0 0 0 0 0 0 0 0 0 0 0 0 0 0 0 0 0 0 0 0
0 0 0 0 0 0 0 0 0 0 0 0 0 0 0 0 0 0 0 0 0 0 0 0 0 0 0 0 0 0 0 0 0 0 0 0 0 0 0 0 0 0 0 0
0 0 0 0 0 0 0 0 0 0 0 0 0 0 0 0 0 0 0 0 0 0 0 0 0 0 0 0 0 0 0 0 0 0 0 0 0 0 0 0 0 0 0 0
0 0 0 0 0 0 0 0 0 0 0 0 0 0 0 0 0 0 0 0 0 0 0 0 0 0 0 0 0 0 0 0 0 0 0 0 0 0 0 0 0 0 0 0
0 0 0 0 0 0 0 0 0 0 0 0 0 0 0 -0 0 0 0 0 0 0 0 0 -0 0 0 0 0 0 0 0 0 0 0 0 0 0 0 0 0 0 0 0
0 0 0 0 0 0 0 0 0 0 0 -0 -0 -0 0 0 0 0 0 0 0 0 0 0 -0 0 0 0 0 0 0 0 0 0 0 0 0 0 0 0 0 0 0 0
0 0 0 0 0 0 0 0 0 -0 -0 -0 -0 -0 0 0 0 0 0 0 0 0 0 -0 0 0 0 0 0 0 0 0 0 0 0 0 0 0 0 0 0 0 0 0
0 0 0 0 0 0 0 0 -0 -0 -0 -0 0 0 0 0 0 0 0 0 0 0 0 0 0 0 0 0 0 0 0 0 0 0 0 0 0 0 0 0 0 0 0 0
0 0 0 0 -0 -0 0 -0 0 0 0 0 0 0 0 0 0 0 0 0 0 0 0 0 0 0 0 0 0 0 0 0 0 0 0 0 0 0 0 0 0 0 0 0
0 0 0 0 0 0 0 0 0 0 0 0 0 0 0 0 0 0 0 0 0 0 0 0 0 0 0 0 0 0 0 0 0 0 0 0 0 0 0 0 0 0 0 0
0 0 0 0 0 0 0 0 0 0 0 0 0 0 0 0 0 0 0 0 0 0 0 0 0 0 0 0 0 0 0 0 0 0 0 0 0 0 0 0 0 0 0 0
0 0 0 0 0 0 0 0 0 0 0 0 0 0 0 0 0 0 0 0 0 0 0 0 0 0 0 0 0 0 0 0 0 0 0 0 0 0 0 0 0 0 0 0
0 0 0 0 0 0 0 0 0 0 0 0 0 0 0 0 0 0 0 0 0 0 0 0 0 0 0 0 0 0 0 0 0 0 0 0 0 0 0 0 0 0 -0 -0
0 0 0 0 0 0 0 0 0 0 0 0 0 0 0 0 0 0 0 0 0 0 0 0 0 0 0 0 0 0 0 0 0 0 0 0 0 0 0 0 0 0 0 0
0 0 0 0 0 -0 0 0 0 0 0 0 0 0 0 0 0 0 0 0 0 0 0 0 0 0 0 0 0 0 0 0 0 0 0 0 0 0 0 0 0 0 0 0
0 0 0 0 0 0 0 0 0 0 0 0 0 0 0 0 0 0 0 0 0 0 0 0 0 0 0 0 0 0 0 0 0 0 0 0 0 0 0 0 0 0 0 0
0 0 0 0 0 0 0 0 0 0 0 0 0 0 0 0 0 0 0 0 0 0 0 0 0 0 0 0 0 0 0 0 0 0 0 0 0 0 0 0 0 0 0 0
0 0 0 0 0 0 0 0 0 0 0 0 0 0 0 0 0 0 0 0 0 0 0 0 0 0 0 0 0 0 0 0 0 0 0 0 0 0 0 0 0 0 0 0
0 0 0 0 0 0 0 0 0 0 0 0 0 0 0 0 0 0 0 0 0 0 0 0 0 0 0 0 0 0 0 0 0 0 0 0 0 0 0 0 0 0 0 0
-0 0 0 0 0 0 0 0 0 0 0 0 0 0 0 0 0 0 0 0 0 0 0 0 0 0 0 0 0 0 0 0 0 0 0 0 0 0 0 -0 0 0 0 0
0 0 0 0 0 0 0 0 0 0 0 0 0 0 0 0 0 0 0 0 0 0 0 0 0 0 0 0 0 0 0 0 0 0 0 0 0 0 -0 -0 0 0 0 0
0 0 0 0 0 0 0 0 0 0 0 0 0 0 0 0 0 0 0 0 0 0 0 0 0 0 0 -0 0 0 0 0 0 0 -0 0 0 0 -0 0 0 0 0 0
0 0 0 0 0 0 0 0 0 0 0 0 0 0 0 0 0 0 0 0 0 0 0 0 0 -0 -0 0 0 0 0 0 0 0 -0 -0 0 0 0 0 0 0 0 0
0 0 0 0 0 0 0 0 0 0 0 0 0 0 0 0 0 0 0 0 0 0 0 0 0 -0 0 0 -0 0 0 0 0 -0 -0 -0 -0 -0 -0 0 0 0 0 -0
0 0 0 0 0 0 0 0 0 0 0 0 0 0 0 0 0 0 0 0 0 0 0 0 0 0 0 0 0 0 0 0 0 -0 -0 -0 -0 -0 -0 0 -0 -0 -0 -0
0 0 0 0 0 0 0 0 0 0 0 0 0 0 0 0 0 0 0 0 0 0 0 0 0 0 0 0 0 0 0 0 0 -0 -0 -0 -0 -0 -0 0 0 0 0 0
0 0 0 0 0 0 0 0 0 0 0 0 0 0 0 0 0 0 0 0 0 0 0 0 0 0 0 0 0 0 0 0 0 0 -0 -0 -0 -0 -0 0 0 0 0 0
Wind_Speed_500mb
23 25 20 26 27 24 28 35 28 41 33 26 17 11 18 18 18 14 13 7 4 4 3 7 14 23 25 31 36 41 47 51 57 60 61 63 66 67 69 70 72 73 74 74
17 22 30 39 33 35 38 34 34 39 34 5 15 20 26 26 23 17 6 1 4 6 10 20 27 31 35 40 45 49 54 59 61 63 64 66 68 69 69 70 71 70 71 71
27 6 12 14 24 24 2 2 8 7 4 7 8 23 31 39 33 17 5 11 16 21 23 25 31 37 44 50 54 58 59 61 61 63 64 63 62 65 69 70 71 72 73 71
12 2 17 7 3 8 15 6 9 11 1 7 20 34 42 26 10 11 11 12 19 20 29 37 44 50 56 61 65 67 66 65 63 61 63 66 69 70 71 69 74 75 73 72
6 8 12 3 7 5 8 3 6 5 9 19 31 31 17 10 10 10 9 18 20 27 35 47 58 63 68 74 72 68 65 65 63 60 68 67 62 61 68 72 72 70 74 75
3 9 9 3 3 6 3 3 15 15 18 25 28 9 5 15 12 13 21 24 29 34 44 59 67 68 73 74 72 70 67 65 62 56 61 64 69 71 73 71 73 76 75 75
14 13 4 6 10 13 4 4 25 30 25 24 7 3 10 19 27 30 35 37 44 51 61 69 71 72 72 73 73 70 69 67 64 66 61 63 69 69 70 70 71 76 73 63
7 7 13 6 1 5 5 10 7 10 10 12 14 20 26 33 39 43 46 51 53 59 67 73 70 70 73 74 71 69 67 66 66 60 63 64 65 64 62 62 64 62 57 55
3 3 13 19 27 19 10 6 7 14 22 27 33 38 41 42 45 47 50 48 53 63 69 68 66 65 70 70 64 63 62 62 62 60 55 52 53 56 57 51 50 51 50 53
9 12 19 23 18 8 2 6 13 15 21 25 32 35 39 42 43 41 43 54 62 62 65 68 63 64 62 61 58 57 59 59 55 47 47 49 47 47 48 48 50 53 53 55
6 23 22 14 9 11 11 16 19 24 30 33 36 38 38 42 45 49 54 59 57 60 64 67 66 66 59 51 50 52 52 48 45 46 49 49 47 46 47 50 50 56 63 66
2 12 11 11 11 5 21 32 38 41 44 41 38 40 41 45 48 54 59 58 60 61 63 66 66 64 50 43 43 43 45 49 51 45 46 49 49 55 47 46 48 50 53 53
8 13 7 6 8 9 30 37 41 40 39 42 40 37 42 52 55 57 56 56 58 60 62 62 61 53 40 38 35 37 41 53 45 46 45 49 54 56 63 62 51 47 44 44
17 12 6 10 12 28 39 41 42 42 40 38 39 42 49 54 56 54 54 55 56 58 58 55 51 44 34 33 34 41 41 45 39 41 45 54 55 57 55 53 58 58 49 45
9 7 9 18 32 42 43 45 48 46 42 40 41 45 50 54 55 55 54 54 56 57 55 51 45 36 32 28 38 39 49 42 40 42 48 53 51 46 46 48 52 56 55 50
6 5 18 32 44 50 52 51 49 47 44 47 49 49 50 51 53 53 50 53 57 59 54 47 40 35 31 31 39 43 46 41 36 38 61 50 47 46 44 48 52 53 52 52
10 22 36 47 52 56 53 46 40 40 46 49 50 51 52 53 54 53 51 51 50 49 45 43 48 42 34 37 37 43 42 41 33 53 52 46 45 43 43 48 50 52 50 48
16 25 34 42 49 52 49 45 43 44 45 47 49 49 51 51 52 55 57 56 52 46 41 47 44 40 41 36 37 39 44 43 44 56 46 44 41 42 43 46 48 51 49 48
38 43 43 43 43 43 43 45 45 46 46 48 52 53 52 51 52 54 55 54 54 53 52 47 44 40 37 33 35 42 49 45 54 51 42 41 39 38 40 45 49 49 47 48
37 38 37 35 35 38 42 42 44 46 45 47 50 52 54 53 53 53 55 55 50 47 48 49 49 45 43 36 30 59 45 45 57 47 40 39 40 37 41 43 47 48 48 46
35 36 38 38 39 39 37 40 42 43 44 45 47 47 51 54 52 53 57 58 53 51 47 48 51 51 42 37 48 59 40 56 51 42 38 37 38 36 40 43 48 47 48 49
37 36 34 34 35 37 37 39 41 43 45 47 42 44 51 54 57 57 51 51 55 51 52 60 60 43 46 46 53 42 54 50 42 38 35 36 33 35 40 44 48 48 51 49
28 28 31 32 33 37 37 36 45 48 48 45 47 52 51 54 56 61 64 53 53 55 58 58 50 47 46 47 48 54 45 39 37 34 32 30 29 32 39 43 46 50 50 48
29 30 33 33 35 37 41 45 48 49 46 49 49 49 54 61 61 49 54 56 59 55 53 55 51 47 43 46 41 36 37 36 34 31 29 27 25 34 36 40 46 48 50 51
29 31 31 35 37 42 44 48 53 54 54 56 56 55 52 48 51 65 63 63 57 55 58 52 46 39 33 33 33 38 36 34 33 30 29 25 30 36 39 43 45 50 54 50
29 27 27 32 38 39 44 45 47 51 54 58 61 57 56 57 62 59 59 59 58 52 49 47 42 34 32 33 31 35 36 35 31 27 25 25 30 36 42 44 43 48 52 53
33 23 27 34 35 40 40 39 44 51 52 57 57 57 60 59 58 57 54 50 50 49 48 46 41 33 29 31 29 34 33 31 26 27 23 23 28 37 42 42 45 49 50 53
Wind_Direction_500mb
258 274 277 269 265 228 221 241 253 278 279 304 4 57 36 10 3 354 346 353 33 119 204 270 303 308 315 322 317 315 312 310 309 308 305 303 301 299 297 294 294 294 294 291
267 263 259 264 264 260 250 254 261 271 281 339 47 21 348 332 320 310 292 359 56 10 341 348 344 335 327 322 321 318 315 311 308 305 303 300 298 298 296 295 295 295 292 292
280 286 325 263 240 237 129 105 181 265 81 284 325 329 324 324 313 306 350 26 27 6 354 348 340 333 329 325 322 318 315 311 309 308 305 303 302 300 298 298 298 297 295 292
286 101 261 246 189 108 104 40 27 81 225 264 314 322 319 328 10 70 42 7 7 353 347 343 336 328 324 323 322 321 318 316 315 312 306 303 301 298 295 294 294 293 290 289
254 219 297 196 27 68 103 225 70 16 341 343 330 327 67 54 41 53 33 342 337 335 337 338 334 326 323 323 321 319 317 313 311 304 300 302 299 294 293 296 298 293 292 291
314 258 250 105 53 20 117 134 1 15 353 347 329 350 50 27 352 326 326 316 315 317 322 327 328 324 322 322 321 320 316 311 309 307 306 300 299 299 299 299 297 295 292 292
236 257 205 112 327 314 174 21 45 64 48 32 55 58 328 326 320 323 324 321 318 316 317 322 323 323 322 321 320 319 315 313 309 309 309 303 302 303 302 299 295 295 297 296
216 239 266 354 314 77 53 40 84 54 42 11 345 322 318 319 319 321 319 319 319 317 317 319 322 323 321 319 318 314 312 309 311 309 306 305 305 304 303 303 303 302 304 304
186 164 85 77 107 96 101 87 3 342 342 336 327 320 315 313 315 314 315 318 317 316 317 320 324 322 318 319 319 316 315 316 315 317 317 317 315 312 309 306 303 302 302 302
32 116 118 115 100 95 177 340 329 350 326 310 304 308 307 305 312 316 315 317 319 321 322 321 325 326 325 325 321 318 318 320 323 324 323 314 315 315 314 313 313 309 307 305
236 109 111 130 151 120 33 18 352 334 332 332 322 318 314 315 317 318 318 319 322 323 323 327 328 326 329 324 319 319 321 326 327 324 322 322 321 320 317 315 309 304 303 304
61 156 137 113 72 20 2 351 339 330 329 331 323 317 316 316 319 321 322 324 321 324 324 326 326 326 328 323 320 322 324 327 324 322 325 322 324 324 325 319 310 305 303 301
156 157 118 43 7 325 334 330 329 327 325 321 320 314 317 320 323 322 321 322 322 324 325 326 324 327 329 324 321 322 324 326 326 322 323 327 328 328 325 321 317 317 314 310
134 124 81 14 340 335 332 326 324 326 323 317 315 316 319 319 319 321 324 324 323 325 327 327 328 333 328 323 325 320 319 324 320 323 327 330 327 317 317 321 322 326 329 321
156 51 37 352 347 345 334 325 320 325 321 317 317 319 320 320 322 324 326 324 325 328 330 330 329 331 325 317 322 322 327 325 326 324 324 320 316 320 320 323 326 327 330 332
201 33 351 341 333 326 326 323 316 318 319 321 323 323 323 321 321 323 325 327 329 329 332 332 331 325 321 319 319 321 327 325 318 312 322 324 325 325 325 331 330 329 329 332
347 343 334 322 320 320 322 322 319 318 321 322 322 323 323 324 324 325 328 326 329 330 332 332 332 328 320 315 318 321 323 326 317 316 325 327 327 328 330 330 331 333 332 335
351 328 318 317 320 322 324 327 325 324 324 323 322 323 323 326 327 327 330 329 331 330 336 333 328 328 318 318 318 322 323 319 311 325 326 328 329 326 328 334 335 337 337 340
333 316 315 320 320 321 322 322 323 325 327 327 327 327 327 330 331 328 329 330 333 333 334 332 332 323 321 314 317 319 320 308 318 325 326 326 328 333 334 338 339 338 340 343
311 310 310 314 315 317 318 320 321 325 329 328 328 328 328 331 331 330 330 330 333 329 328 329 326 322 318 318 322 325 307 311 322 322 323 326 328 331 338 339 340 342 342 343
325 326 323 325 327 327 325 324 323 327 331 331 330 329 328 329 331 332 331 330 335 332 326 320 326 322 321 324 323 321 299 317 319 319 320 324 327 331 338 342 345 346 344 343
326 325 325 328 329 330 332 331 328 330 330 330 330 331 329 328 330 329 331 327 328 327 325 322 317 323 321 315 318 310 310 314 316 317 318 323 326 331 338 341 342 345 346 344
317 319 322 324 328 329 332 330 325 329 330 329 330 330 327 326 327 326 326 330 325 324 316 318 321 315 317 313 309 305 308 313 316 316 318 321 326 336 340 342 343 346 345 350
318 323 326 324 325 327 327 326 326 328 328 325 324 327 327 326 322 328 324 320 320 322 317 316 318 313 314 301 302 308 314 315 316 316 317 320 325 332 332 335 338 339 340 346
315 321 323 323 324 327 324 327 328 331 329 328 327 329 329 328 327 324 321 320 323 321 319 320 318 310 307 307 309 311 311 314 317 315 315 315 323 328 334 333 331 334 339 336
314 329 324 321 322 320 323 329 333 326 328 327 327 333 336 328 324 323 324 323 324 324 322 321 321 312 307 308 309 312 312 313 310 310 308 315 326 332 334 335 334 335 337 339
314 319 322 312 324 328 332 331 325 330 332 328 330 334 321 326 328 328 329 331 331 329 325 324 320 311 302 309 307 308 308 310 307 312 312 318 327 334 335 336 337 341 340 340
Wind_Speed_850mb
23 25 20 26 27 24 28 35 28 41 33 26 17 11 18 18 18 14 13 7 4 4 3 7 14 23 25 31 36 41 47 51 57 60 61 63 66 67 69 70 72 73 74 74
17 22 30 39 33 35 38 34 34 39 34 5 15 20 26 26 23 17 6 1 4 6 10 20 27 31 35 40 45 49 54 59 61 63 64 66 68 69 69 70 71 70 71 71
27 6 12 14 24 24 2 2 8 7 4 7 8 23 31 39 33 17 5 11 16 21 23 25 31 37 44 50 54 58 59 61 61 63 64 63 62 65 69 70 71 72 73 71
12 2 17 7 3 8 15 6 9 11 1 7 20 34 42 26 10 11 11 12 19 20 29 37 44 50 56 61 65 67 66 65 63 61 63 66 69 70 71 69 74 75 73 72
6 8 12 3 7 5 8 3 6 5 9 19 31 31 17 10 10 10 9 18 20 27 35 47 58 63 68 74 72 68 65 65 63 60 68 67 62 61 68 72 72 70 74 75
3 9 9 3 3 6 3 3 15 15 18 25 28 9 5 15 12 13 21 24 29 34 44 59 67 68 73 74 72 70 67 65 62 56 61 64 69 71 73 71 73 76 75 75
14 13 4 6 10 13 4 4 25 30 25 24 7 3 10 19 27 30 35 37 44 51 61 69 71 72 72 73 73 70 69 67 64 66 61 63 69 69 70 70 71 76 73 63
7 7 13 6 1 5 5 10 7 10 10 12 14 20 26 33 39 43 46 51 53 59 67 73 70 70 73 74 71 69 67 66 66 60 63 64 65 64 62 62 64 62 57 55
3 3 13 19 27 19 10 6 7 14 22 27 33 38 41 42 45 47 50 48 53 63 69 68 66 65 70 70 64 63 62 62 62 60 55 52 53 56 57 51 50 51 50 53
9 12 19 23 18 8 2 6 13 15 21 25 32 35 39 42 43 41 43 54 62 62 65 68 63 64 62 61 58 57 59 59 55 47 47 49 47 47 48 48 50 53 53 55
6 23 22 14 9 11 11 16 19 24 30 33 36 38 38 42 45 49 54 59 57 60 64 67 66 66 59 51 50 52 52 48 45 46 49 49 47 46 47 50 50 56 63 66
2 12 11 11 11 5 21 32 38 41 44 41 38 40 41 45 48 54 59 58 60 61 63 66 66 64 50 43 43 43 45 49 51 45 46 49 49 55 47 46 48 50 53 53
8 13 7 6 8 9 30 37 41 40 39 42 40 37 42 52 55 57 56 56 58 60 62 62 61 53 40 38 35 37 41 53 45 46 45 49 54 56 63 62 51 47 44 44
17 12 6 10 12 28 39 41 42 42 40 38 39 42 49 54 56 54 54 55 56 58 58 55 51 44 34 33 34 41 41 45 39 41 45 54 55 57 55 53 58 58 49 45
9 7 9 18 32 42 43 45 48 46 42 40 41 45 50 54 55 55 54 54 56 57 55 51 45 36 32 28 38 39 49 42 40 42 48 53 51 46 46 48 52 56 55 50
6 5 18 32 44 50 52 51 49 47 44 47 49 49 50 51 53 53 50 53 57 59 54 47 40 35 31 31 39 43 46 41 36 38 61 50 47 46 44 48 52 53 52 52
10 22 36 47 52 56 53 46 40 40 46 49 50 51 52 53 54 53 51 51 50 49 45 43 48 42 34 37 37 43 42 41 33 53 52 46 45 43 43 48 50 52 50 48
16 25 34 42 49 52 49 45 43 44 45 47 49 49 51 51 52 55 57 56 52 46 41 47 44 40 41 36 37 39 44 43 44 56 46 44 41 42 43 46 48 51 49 48
38 43 43 43 43 43 43 45 45 46 46 48 52 53 52 51 52 54 55 54 54 53 52 47 44 40 37 33 35 42 49 45 54 51 42 41 39 38 40 45 49 49 47 48
37 38 37 35 35 38 42 42 44 46 45 47 50 52 54 53 53 53 55 55 50 47 48 49 49 45 43 36 30 59 45 45 57 47 40 39 40 37 41 43 47 48 48 46
35 36 38 38 39 39 37 40 42 43 44 45 47 47 51 54 52 53 57 58 53 51 47 48 51 51 42 37 48 59 40 56 51 42 38 37 38 36 40 43 48 47 48 49
37 36 34 34 35 37 37 39 41 43 45 47 42 44 51 54 57 57 51 51 55 51 52 60 60 43 46 46 53 42 54 50 42 38 35 36 33 35 40 44 48 48 51 49
28 28 31 32 33 37 37 36 45 48 48 45 47 52 51 54 56 61 64 53 53 55 58 58 50 47 46 47 48 54 45 39 37 34 32 30 29 32 39 43 46 50 50 48
29 30 33 33 35 37 41 45 48 49 46 49 49 49 54 61 61 49 54 56 59 55 53 55 51 47 43 46 41 36 37 36 34 31 29 27 25 34 36 40 46 48 50 51
29 31 31 35 37 42 44 48 53 54 54 56 56 55 52 48 51 65 63 63 57 55 58 52 46 39 33 33 33 38 36 34 33 30 29 25 30 36 39 43 45 50 54 50
29 27 27 32 38 39 44 45 47 51 54 58 61 57 56 57 62 59 59 59 58 52 49 47 42 34 32 33 31 35 36 35 31 27 25 25 30 36 42 44 43 48 52 53
33 23 27 34 35 40 40 39 44 51 52 57 57 57 60 59 58 57 54 50 50 49 48 46 41 33 29 31 29 34 33 31 26 27 23 23 28 37 42 42 45 49 50 53
Wind_Direction_850mb
258 274 277 269 265 228 221 241 253 278 279 304 4 57 36 10 3 354 346 353 33 119 204 270 303 308 315 322 317 315 312 310 309 308 305 303 301 299 297 294 294 294 294 291
267 263 259 264 264 260 250 254 261 271 281 339 47 21 348 332 320 310 292 359 56 10 341 348 344 335 327 322 321 318 315 311 308 305 303 300 298 298 296 295 295 295 292 292
280 286 325 263 240 237 129 105 181 265 81 284 325 329 324 324 313 306 350 26 27 6 354 348 340 333 329 325 322 318 315 311 309 308 305 303 302 300 298 298 298 297 295 292
286 101 261 246 189 108 104 40 27 81 225 264 314 322 319 328 10 70 42 7 7 353 347 343 336 328 324 323 322 321 318 316 315 312 306 303 301 298 295 294 294 293 290 289
254 219 297 196 27 68 103 225 70 16 341 343 330 327 67 54 41 53 33 342 337 335 337 338 334 326 323 323 321 319 317 313 311 304 300 302 299 294 293 296 298 293 292 291
314 258 250 105 53 20 117 134 1 15 353 347 329 350 50 27 352 326 326 316 315 317 322 327 328 324 322 322 321 320 316 311 309 307 306 300 299 299 299 299 297 295 292 292
236 257 205 112 327 314 174 21 45 64 48 32 55 58 328 326 320 323 324 321 318 316 317 322 323 323 322 321 320 319 315 313 309 309 309 303 302 303 302 299 295 295 297 296
216 239 266 354 314 77 53 40 84 54 42 11 345 322 318 319 319 321 319 319 319 317 317 319 322 323 321 319 318 314 312 309 311 309 306 305 305 304 303 303 303 302 304 304
186 164 85 77 107 96 101 87 3 342 342 336 327 320 315 313 315 314 315 318 317 316 317 320 324 322 318 319 319 316 315 316 315 317 317 317 315 312 309 306 303 302 302 302
32 116 118 115 100 95 177 340 329 350 326 310 304 308 307 305 312 316 315 317 319 321 322 321 325 326 325 325 321 318 318 320 323 324 323 314 315 315 314 313 313 309 307 305
236 109 111 130 151 120 33 18 352 334 332 332 322 318 314 315 317 318 318 319 322 323 323 327 328 326 329 324 319 319 321 326 327 324 322 322 321 320 317 315 309 304 303 304
61 156 137 113 72 20 2 351 339 330 329 331 323 317 316 316 319 321 322 324 321 324 324 326 326 326 328 323 320 322 324 327 324 322 325 322 324 324 325 319 310 305 303 301
156 157 118 43 7 325 334 330 329 327 325 321 320 314 317 320 323 322 321 322 322 324 325 326 324 327 329 324 321 322 324 326 326 322 323 327 328 328 325 321 317 317 314 310
134 124 81 14 340 335 332 326 324 326 323 317 315 316 319 319 319 321 324 324 323 325 327 327 328 333 328 323 325 320 319 324 320 323 327 330 327 317 317 321 322 326 329 321
156 51 37 352 347 345 334 325 320 325 321 317 317 319 320 320 322 324 326 324 325 328 330 330 329 331 325 317 322 322 327 325 326 324 324 320 316 320 320 323 326 327 330 332
201 33 351 341 333 326 326 323 316 318 319 321 323 323 323 321 321 323 325 327 329 329 332 332 331 325 321 319 319 321 327 325 318 312 322 324 325 325 325 331 330 329 329 332
347 343 334 322 320 320 322 322 319 318 321 322 322 323 323 324 324 325 328 326 329 330 332 332 332 328 320 315 318 321 323 326 317 316 325 327 327 328 330 330 331 333 332 335
351 328 318 317 320 322 324 327 325 324 324 323 322 323 323 326 327 327 330 329 331 330 336 333 328 328 318 318 318 322 323 319 311 325 326 328 329 326 328 334 335 337 337 340
333 316 315 320 320 321 322 322 323 325 327 327 327 327 327 330 331 328 329 330 333 333 334 332 332 323 321 314 317 319 320 308 318 325 326 326 328 333 334 338 339 338 340 343
311 310 310 314 315 317 318 320 321 325 329 328 328 328 328 331 331 330 330 330 333 329 328 329 326 322 318 318 322 325 307 311 322 322 323 326 328 331 338 339 340 342 342 343
325 326 323 325 327 327 325 324 323 327 331 331 330 329 328 329 331 332 331 330 335 332 326 320 326 322 321 324 323 321 299 317 319 319 320 324 327 331 338 342 345 346 344 343
326 325 325 328 329 330 332 331 328 330 330 330 330 331 329 328 330 329 331 327 328 327 325 322 317 323 321 315 318 310 310 314 316 317 318 323 326 331 338 341 342 345 346 344
317 319 322 324 328 329 332 330 325 329 330 329 330 330 327 326 327 326 326 330 325 324 316 318 321 315 317 313 309 305 308 313 316 316 318 321 326 336 340 342 343 346 345 350
318 323 326 324 325 327 327 326 326 328 328 325 324 327 327 326 322 328 324 320 320 322 317 316 318 313 314 301 302 308 314 315 316 316 317 320 325 332 332 335 338 339 340 346
315 321 323 323 324 327 324 327 328 331 329 328 327 329 329 328 327 324 321 320 323 321 319 320 318 310 307 307 309 311 311 314 317 315 315 315 323 328 334 333 331 334 339 336
314 329 324 321 322 320 323 329 333 326 328 327 327 333 336 328 324 323 324 323 324 324 322 321 321 312 307 308 309 312 312 313 310 310 308 315 326 332 334 335 334 335 337 339
314 319 322 312 324 328 332 331 325 330 332 328 330 334 321 326 328 328 329 331 331 329 325 324 320 311 302 309 307 308 308 310 307 312 312 318 327 334 335 336 337 341 340 340